Volver al catálogo

COSMOS 1275 DEB

ActivoPO
NORAD 27734·DEBRIS·🇷🇺 Russia

Lanzado Jun 4, 1981 desde Plesetsk Cosmodrome

Loading…

Próximos Pases (próximas 24 horas)

TLE

ActualizadoSource: Space-Track

Época: Sep 13, 2026, 14:33 UTC

1 27734U 81053MP  26256.60658534  .00001499  00000-0  88739-3 0  9999
2 27734  83.1174   2.0617 0101411  61.2822 299.8497 14.04536995568805

Sigue COSMOS 1275 DEB en tiempo real con AllMySat

Download on the App Store